AEE681 LIRN-LGAV

Flight info

Callsign AEE681
Flight time 1h 19m
Altitude 35000
Route POLIT DCT MAREP DCT GEMVI DCT DINOB DCT ARA UY144 NEMES
Aircraft A320/M-SDE3FGHIRWY/LB1

Departure

Time 2026-05-07 12:57
Airport Naples International Airport (LIRN)

Arrival

Time 2026-05-07 14:17
Airport Athens Eleftherios Venizelos International Airport (LGAV)
Time Latitude Longitude Altitude Speed Heading
2026-05-07 12:40 40.88018 14.28246 291 ft 0 kts 333°
2026-05-07 12:51 40.88018 14.28245 290 ft 1 kts 333°
2026-05-07 12:52 40.88036 14.28239 294 ft 5 kts 357°
2026-05-07 12:52 40.88063 14.28285 291 ft 9 kts 82°
2026-05-07 12:52 40.88057 14.28384 287 ft 13 kts 97°
2026-05-07 12:52 40.88044 14.28514 285 ft 16 kts 98°
2026-05-07 12:53 40.88074 14.28655 282 ft 18 kts 51°
2026-05-07 12:53 40.88158 14.28802 279 ft 21 kts 53°
2026-05-07 12:53 40.88245 14.28952 275 ft 21 kts 53°
2026-05-07 12:53 40.88338 14.29113 271 ft 21 kts 52°
2026-05-07 12:54 40.88426 14.29264 267 ft 21 kts 53°
2026-05-07 12:54 40.88516 14.29420 263 ft 20 kts 52°
2026-05-07 12:54 40.88599 14.29564 259 ft 19 kts 53°
2026-05-07 12:54 40.88686 14.29715 254 ft 21 kts 52°
2026-05-07 12:55 40.88774 14.29865 249 ft 21 kts 53°
2026-05-07 12:55 40.88864 14.30024 244 ft 23 kts 53°
2026-05-07 12:55 40.88960 14.30188 238 ft 22 kts 52°
2026-05-07 12:55 40.89045 14.30249 236 ft 0 kts 332°
2026-05-07 12:56 40.89077 14.30227 234 ft 9 kts 332°
2026-05-07 12:56 40.89111 14.30159 236 ft 10 kts 256°
2026-05-07 12:56 40.89107 14.30149 240 ft 5 kts 240°
2026-05-07 12:57 40.88925 14.29755 249 ft 93 kts 238°
2026-05-07 12:57 40.88447 14.28745 280 ft 161 kts 238°
2026-05-07 12:57 40.87871 14.27487 1039 ft 154 kts 237°
2026-05-07 12:57 40.87014 14.26563 1639 ft 169 kts 195°
2026-05-07 12:58 40.85856 14.26646 2276 ft 173 kts 160°
2026-05-07 12:58 40.84653 14.27175 2577 ft 193 kts 162°
2026-05-07 12:58 40.83303 14.27624 3051 ft 206 kts 169°
2026-05-07 12:58 40.81877 14.27852 3772 ft 203 kts 177°
2026-05-07 12:59 40.80455 14.27876 4481 ft 206 kts 179°
2026-05-07 12:59 40.78959 14.27887 4820 ft 229 kts 178°
2026-05-07 12:59 40.77293 14.27961 5272 ft 248 kts 176°
2026-05-07 12:59 40.75491 14.28109 5739 ft 267 kts 175°
2026-05-07 13:00 40.73610 14.28306 6447 ft 275 kts 174°
2026-05-07 13:00 40.71698 14.28532 7253 ft 277 kts 173°
2026-05-07 13:00 40.69796 14.29043 8060 ft 280 kts 165°
2026-05-07 13:00 40.67913 14.29734 8880 ft 282 kts 164°
2026-05-07 13:01 40.66020 14.30469 9666 ft 285 kts 164°
2026-05-07 13:01 40.64148 14.31204 10549 ft 277 kts 164°
2026-05-07 13:01 40.62366 14.31903 11756 ft 260 kts 165°
2026-05-07 13:01 40.60643 14.32570 12357 ft 256 kts 166°
2026-05-07 13:02 40.58934 14.33267 12828 ft 257 kts 159°
2026-05-07 13:02 40.57390 14.34469 13290 ft 262 kts 143°
2026-05-07 13:02 40.56010 14.36075 13771 ft 271 kts 142°
2026-05-07 13:02 40.54555 14.37757 13899 ft 293 kts 142°
2026-05-07 13:03 40.52960 14.39582 14020 ft 315 kts 142°
2026-05-07 13:03 40.51249 14.41535 14140 ft 335 kts 142°
2026-05-07 13:03 40.49438 14.43606 14377 ft 350 kts 142°
2026-05-07 13:03 40.47584 14.45736 14851 ft 357 kts 142°
2026-05-07 13:04 40.45702 14.47907 15360 ft 362 kts 142°
2026-05-07 13:04 40.43821 14.50073 15862 ft 367 kts 142°
2026-05-07 13:04 40.41883 14.52296 16364 ft 371 kts 142°
2026-05-07 13:04 40.39923 14.54539 16872 ft 376 kts 142°
2026-05-07 13:05 40.37936 14.56814 17382 ft 381 kts 142°
2026-05-07 13:05 40.35920 14.59118 17898 ft 386 kts 142°
2026-05-07 13:05 40.33884 14.61445 18401 ft 391 kts 142°
2026-05-07 13:05 40.31822 14.63805 18885 ft 395 kts 142°
2026-05-07 13:06 40.29744 14.66184 19407 ft 398 kts 143°
2026-05-07 13:06 40.27647 14.68579 19938 ft 401 kts 143°
2026-05-07 13:06 40.25555 14.70958 20460 ft 404 kts 143°
2026-05-07 13:06 40.23423 14.73381 20973 ft 407 kts 143°
2026-05-07 13:07 40.21269 14.75826 21481 ft 410 kts 143°
2026-05-07 13:07 40.19109 14.78276 21966 ft 413 kts 143°
2026-05-07 13:07 40.17088 14.80990 22419 ft 422 kts 129°
2026-05-07 13:07 40.15659 14.84398 22865 ft 432 kts 116°
2026-05-07 13:08 40.14492 14.87979 23295 ft 435 kts 116°
2026-05-07 13:08 40.13318 14.91646 23695 ft 439 kts 116°
2026-05-07 13:08 40.12141 14.95350 24035 ft 442 kts 116°
2026-05-07 13:08 40.10955 14.99088 24357 ft 446 kts 116°
2026-05-07 13:09 40.09756 15.02861 24682 ft 450 kts 116°
2026-05-07 13:09 40.08560 15.06596 24997 ft 454 kts 116°
2026-05-07 13:09 40.07330 15.10410 25309 ft 457 kts 116°
2026-05-07 13:09 40.06081 15.14257 25619 ft 461 kts 116°
2026-05-07 13:10 40.04820 15.18131 25894 ft 464 kts 116°
2026-05-07 13:10 40.03558 15.22016 25962 ft 465 kts 116°
2026-05-07 13:10 40.02295 15.25911 25970 ft 466 kts 116°
2026-05-07 13:10 40.01030 15.29810 25969 ft 466 kts 116°
2026-05-07 13:11 39.99777 15.33667 26162 ft 468 kts 116°
2026-05-07 13:11 39.98499 15.37596 26509 ft 471 kts 116°
2026-05-07 13:11 39.97211 15.41545 26826 ft 474 kts 116°
2026-05-07 13:11 39.95911 15.45523 27118 ft 478 kts 116°
2026-05-07 13:12 39.94601 15.49525 27427 ft 481 kts 116°
2026-05-07 13:12 39.93280 15.53553 27724 ft 484 kts 116°
2026-05-07 13:12 39.91946 15.57609 28018 ft 488 kts 116°
2026-05-07 13:12 39.90618 15.61633 28300 ft 491 kts 116°
2026-05-07 13:13 39.89264 15.65741 28581 ft 494 kts 116°
2026-05-07 13:13 39.87902 15.69880 28866 ft 498 kts 116°
2026-05-07 13:13 39.86532 15.74033 29141 ft 501 kts 116°
2026-05-07 13:13 39.85152 15.78213 29500 ft 502 kts 116°
2026-05-07 13:14 39.83765 15.82404 29905 ft 503 kts 116°
2026-05-07 13:14 39.82392 15.86534 30245 ft 504 kts 116°
2026-05-07 13:14 39.80993 15.90736 30488 ft 507 kts 117°
2026-05-07 13:14 39.79585 15.94967 30738 ft 509 kts 117°
2026-05-07 13:15 39.78174 15.99213 30994 ft 512 kts 117°
2026-05-07 13:15 39.76773 16.03427 31268 ft 515 kts 117°
2026-05-07 13:15 39.75344 16.07708 31544 ft 517 kts 117°
2026-05-07 13:15 39.73904 16.12010 31807 ft 520 kts 117°
2026-05-07 13:16 39.72447 16.16341 32028 ft 523 kts 118°
2026-05-07 13:16 39.70983 16.20675 32328 ft 525 kts 118°
2026-05-07 13:16 39.69518 16.25027 32615 ft 527 kts 118°
2026-05-07 13:16 39.68043 16.29413 32930 ft 529 kts 118°
2026-05-07 13:17 39.66584 16.33752 33197 ft 531 kts 118°
2026-05-07 13:17 39.65099 16.38159 33468 ft 533 kts 118°
2026-05-07 13:17 39.63606 16.42571 33738 ft 536 kts 118°
2026-05-07 13:17 39.62100 16.47008 34021 ft 537 kts 119°
2026-05-07 13:18 39.60588 16.51455 34266 ft 538 kts 119°
2026-05-07 13:18 39.59586 16.54400 34453 ft 538 kts 119°
2026-05-07 13:18 39.57582 16.60292 34844 ft 538 kts 119°
2026-05-07 13:18 39.56065 16.64728 34987 ft 538 kts 119°
2026-05-07 13:19 39.53503 16.72177 35018 ft 547 kts 118°
2026-05-07 13:19 39.50392 16.81232 35019 ft 549 kts 118°
2026-05-07 13:20 39.47290 16.90280 35023 ft 549 kts 118°
2026-05-07 13:20 39.44199 16.99265 35033 ft 549 kts 118°
2026-05-07 13:21 39.41075 17.08299 35042 ft 550 kts 118°
2026-05-07 13:21 39.37942 17.17321 35050 ft 550 kts 118°
2026-05-07 13:22 39.34797 17.26339 35052 ft 549 kts 118°
2026-05-07 13:22 39.31655 17.35344 35056 ft 549 kts 118°
2026-05-07 13:23 39.28502 17.44350 35056 ft 549 kts 118°
2026-05-07 13:23 39.25366 17.53285 35062 ft 549 kts 118°
2026-05-07 13:24 39.22201 17.62263 35071 ft 549 kts 118°
2026-05-07 13:24 39.19024 17.71244 35077 ft 549 kts 118°
2026-05-07 13:25 39.15863 17.80154 35065 ft 549 kts 118°
2026-05-07 13:25 39.12684 17.89108 35068 ft 549 kts 118°
2026-05-07 13:26 39.09482 17.98068 35068 ft 550 kts 118°
2026-05-07 13:26 39.06282 18.07008 35069 ft 549 kts 118°
2026-05-07 13:27 39.03097 18.15887 35074 ft 549 kts 118°
2026-05-07 13:27 38.99883 18.24801 35077 ft 549 kts 118°
2026-05-07 13:28 38.96659 18.33732 35077 ft 549 kts 118°
2026-05-07 13:28 38.93438 18.42638 35074 ft 549 kts 118°
2026-05-07 13:29 38.90232 18.51475 35077 ft 549 kts 118°
2026-05-07 13:29 38.86997 18.60361 35072 ft 548 kts 118°
2026-05-07 13:30 38.83756 18.69240 35076 ft 548 kts 118°
2026-05-07 13:30 38.80503 18.78097 35071 ft 548 kts 118°
2026-05-07 13:31 38.77266 18.86885 35076 ft 548 kts 118°
2026-05-07 13:31 38.74000 18.95725 35074 ft 548 kts 118°
2026-05-07 13:32 38.71335 19.04899 35077 ft 550 kts 106°
2026-05-07 13:32 38.69263 19.14289 35078 ft 551 kts 106°
2026-05-07 13:33 38.67154 19.23721 35085 ft 551 kts 106°
2026-05-07 13:33 38.65044 19.33156 35086 ft 551 kts 106°
2026-05-07 13:34 38.61886 19.47244 35089 ft 551 kts 106°
2026-05-07 13:35 38.59761 19.56671 35087 ft 551 kts 106°
2026-05-07 13:35 38.57618 19.66097 35091 ft 551 kts 106°
2026-05-07 13:36 38.55491 19.75454 35095 ft 551 kts 106°
2026-05-07 13:36 38.53341 19.84864 35093 ft 551 kts 106°
2026-05-07 13:37 38.51176 19.94272 35093 ft 551 kts 106°
2026-05-07 13:37 38.49031 20.03611 35094 ft 551 kts 106°
2026-05-07 13:38 38.46864 20.13013 35091 ft 551 kts 106°
2026-05-07 13:38 38.44681 20.22404 35100 ft 551 kts 106°
2026-05-07 13:39 38.42502 20.31727 35101 ft 551 kts 105°
2026-05-07 13:39 38.40320 20.41102 35104 ft 551 kts 105°
2026-05-07 13:40 38.38128 20.50477 35111 ft 551 kts 105°
2026-05-07 13:40 38.35915 20.59833 35113 ft 551 kts 106°
2026-05-07 13:41 38.33687 20.69181 35115 ft 551 kts 106°
2026-05-07 13:41 38.31455 20.78536 35108 ft 551 kts 105°
2026-05-07 13:42 38.29235 20.87826 35114 ft 551 kts 105°
2026-05-07 13:42 38.27002 20.97159 35119 ft 551 kts 105°
2026-05-07 13:43 38.24756 21.06493 35121 ft 550 kts 106°
2026-05-07 13:43 38.22517 21.15748 35125 ft 549 kts 106°
2026-05-07 13:43 38.21388 21.20405 34872 ft 549 kts 106°
2026-05-07 13:44 38.20258 21.25056 34509 ft 549 kts 106°
2026-05-07 13:44 38.19132 21.29677 34079 ft 548 kts 106°
2026-05-07 13:44 38.18002 21.34311 33594 ft 546 kts 107°
2026-05-07 13:44 38.16874 21.38924 33125 ft 543 kts 107°
2026-05-07 13:45 38.15634 21.43445 32658 ft 539 kts 114°
2026-05-07 13:45 38.14069 21.47681 32207 ft 531 kts 118°
2026-05-07 13:45 38.12447 21.51870 31754 ft 525 kts 118°
2026-05-07 13:45 38.10843 21.56009 31310 ft 518 kts 118°
2026-05-07 13:46 38.09260 21.60088 30881 ft 512 kts 118°
2026-05-07 13:46 38.07697 21.64121 30437 ft 505 kts 118°
2026-05-07 13:46 38.06151 21.68112 29983 ft 499 kts 118°
2026-05-07 13:46 38.04629 21.72035 29484 ft 492 kts 118°
2026-05-07 13:47 38.03121 21.75905 28994 ft 486 kts 119°
2026-05-07 13:47 38.01639 21.79688 28509 ft 481 kts 118°
2026-05-07 13:47 38.00159 21.83465 28039 ft 476 kts 118°
2026-05-07 13:47 37.98694 21.87206 27580 ft 470 kts 118°
2026-05-07 13:48 37.97250 21.90896 27102 ft 464 kts 118°
2026-05-07 13:48 37.95823 21.94540 26655 ft 459 kts 118°
2026-05-07 13:48 37.94403 21.98151 26204 ft 454 kts 118°
2026-05-07 13:48 37.92996 22.01725 25769 ft 450 kts 118°
2026-05-07 13:49 37.91622 22.05215 25334 ft 446 kts 118°
2026-05-07 13:49 37.90239 22.08717 24865 ft 443 kts 118°
2026-05-07 13:49 37.88862 22.12202 24400 ft 441 kts 118°
2026-05-07 13:49 37.87496 22.15668 23949 ft 439 kts 117°
2026-05-07 13:50 37.86133 22.19129 23457 ft 437 kts 117°
2026-05-07 13:50 37.84775 22.22569 22917 ft 435 kts 117°
2026-05-07 13:50 37.83418 22.25996 22388 ft 434 kts 118°
2026-05-07 13:50 37.82085 22.29357 21860 ft 426 kts 118°
2026-05-07 13:51 37.80770 22.32665 21346 ft 416 kts 118°
2026-05-07 13:51 37.79479 22.35915 20844 ft 411 kts 118°
2026-05-07 13:51 37.78197 22.39141 20348 ft 408 kts 118°
2026-05-07 13:51 37.76919 22.42350 19872 ft 408 kts 118°
2026-05-07 13:52 37.75654 22.45525 19392 ft 401 kts 118°
2026-05-07 13:52 37.74400 22.48665 18927 ft 399 kts 119°
2026-05-07 13:52 37.73148 22.51789 18458 ft 398 kts 119°
2026-05-07 13:52 37.71918 22.54859 17939 ft 394 kts 119°
2026-05-07 13:53 37.70687 22.57940 17414 ft 390 kts 119°
2026-05-07 13:53 37.69507 22.61016 16904 ft 388 kts 117°
2026-05-07 13:53 37.68391 22.64111 16398 ft 386 kts 116°
2026-05-07 13:53 37.67309 22.67211 15898 ft 385 kts 115°
2026-05-07 13:54 37.66236 22.70305 15409 ft 383 kts 115°
2026-05-07 13:54 37.65186 22.73315 15140 ft 376 kts 115°
2026-05-07 13:54 37.64129 22.76323 15102 ft 374 kts 115°
2026-05-07 13:54 37.63431 22.79480 15110 ft 376 kts 98°
2026-05-07 13:55 37.63160 22.82777 14882 ft 378 kts 95°
2026-05-07 13:55 37.62932 22.86069 14409 ft 377 kts 95°
2026-05-07 13:55 37.62706 22.89360 13931 ft 373 kts 95°
2026-05-07 13:55 37.62486 22.92591 13412 ft 365 kts 95°
2026-05-07 13:56 37.62268 22.95745 12897 ft 357 kts 95°
2026-05-07 13:56 37.62089 22.98794 12402 ft 350 kts 90°
2026-05-07 13:56 37.62204 23.01821 12132 ft 337 kts 85°
2026-05-07 13:56 37.62378 23.04736 12109 ft 332 kts 85°
2026-05-07 13:57 37.62555 23.07645 12109 ft 331 kts 85°
2026-05-07 13:57 37.62730 23.10544 12115 ft 331 kts 85°
2026-05-07 13:57 37.62901 23.13408 12112 ft 331 kts 85°
2026-05-07 13:57 37.63073 23.16305 12111 ft 331 kts 85°
2026-05-07 13:58 37.63243 23.19207 12109 ft 331 kts 85°
2026-05-07 13:58 37.63413 23.22111 12112 ft 331 kts 85°
2026-05-07 13:58 37.63581 23.25014 12113 ft 331 kts 85°
2026-05-07 13:58 37.63748 23.27911 12115 ft 331 kts 85°
2026-05-07 13:59 37.63914 23.30811 12114 ft 331 kts 85°
2026-05-07 13:59 37.64078 23.33707 12113 ft 331 kts 85°
2026-05-07 13:59 37.64241 23.36571 12115 ft 331 kts 85°
2026-05-07 13:59 37.64404 23.39470 12114 ft 331 kts 85°
2026-05-07 14:00 37.64566 23.42363 12117 ft 331 kts 85°
2026-05-07 14:00 37.64726 23.45259 12113 ft 331 kts 85°
2026-05-07 14:00 37.64886 23.48164 12109 ft 331 kts 85°
2026-05-07 14:00 37.65045 23.51061 12114 ft 331 kts 85°
2026-05-07 14:01 37.65201 23.53965 12117 ft 331 kts 85°
2026-05-07 14:01 37.65356 23.56862 12119 ft 331 kts 85°
2026-05-07 14:01 37.65508 23.59724 12124 ft 331 kts 85°
2026-05-07 14:01 37.65660 23.62630 12120 ft 331 kts 85°
2026-05-07 14:02 37.65778 23.64908 12118 ft 330 kts 85°
2026-05-07 14:02 37.65928 23.67804 12121 ft 330 kts 85°
2026-05-07 14:02 37.66078 23.70700 12024 ft 332 kts 85°
2026-05-07 14:02 37.66177 23.72618 11771 ft 326 kts 85°
2026-05-07 14:03 37.66322 23.75424 11475 ft 315 kts 85°
2026-05-07 14:03 37.66478 23.78171 11183 ft 312 kts 82°
2026-05-07 14:03 37.67130 23.80735 10897 ft 305 kts 59°
2026-05-07 14:03 37.68225 23.83036 10617 ft 305 kts 56°
2026-05-07 14:04 37.69372 23.85282 10335 ft 302 kts 55°
2026-05-07 14:04 37.70503 23.87469 10054 ft 300 kts 55°
2026-05-07 14:04 37.71645 23.89663 9746 ft 298 kts 55°
2026-05-07 14:04 37.72781 23.91846 9439 ft 297 kts 55°
2026-05-07 14:05 37.73917 23.94019 9133 ft 296 kts 56°
2026-05-07 14:05 37.75049 23.96181 8827 ft 294 kts 55°
2026-05-07 14:05 37.76176 23.98334 8525 ft 293 kts 55°
2026-05-07 14:05 37.77301 24.00480 8199 ft 292 kts 55°
2026-05-07 14:06 37.78430 24.02630 7804 ft 295 kts 55°
2026-05-07 14:06 37.79605 24.04758 7407 ft 295 kts 48°
2026-05-07 14:06 37.81132 24.06484 7055 ft 293 kts 36°
2026-05-07 14:06 37.82700 24.07976 6992 ft 270 kts 35°
2026-05-07 14:07 37.84119 24.09312 7001 ft 247 kts 35°
2026-05-07 14:07 37.85486 24.10598 7013 ft 244 kts 35°
2026-05-07 14:07 37.86846 24.11875 7013 ft 242 kts 35°
2026-05-07 14:07 37.88200 24.13149 6995 ft 242 kts 35°
2026-05-07 14:08 37.89575 24.14429 6639 ft 247 kts 33°
2026-05-07 14:08 37.91127 24.15342 6236 ft 245 kts 17°
2026-05-07 14:08 37.92744 24.15994 5837 ft 241 kts 15°
2026-05-07 14:08 37.94338 24.16603 5434 ft 237 kts 15°
2026-05-07 14:09 37.95883 24.17189 5040 ft 233 kts 15°
2026-05-07 14:09 37.97427 24.17775 4645 ft 229 kts 15°
2026-05-07 14:09 37.98947 24.18351 4235 ft 227 kts 15°
2026-05-07 14:09 38.00446 24.18914 4008 ft 222 kts 15°
2026-05-07 14:10 38.01942 24.19477 4004 ft 225 kts 15°
2026-05-07 14:10 38.03448 24.20039 3999 ft 225 kts 15°
2026-05-07 14:10 38.04941 24.20597 4009 ft 227 kts 15°
2026-05-07 14:10 38.06461 24.21086 3994 ft 225 kts
2026-05-07 14:11 38.07955 24.20700 3997 ft 219 kts 326°
2026-05-07 14:11 38.08989 24.19356 3935 ft 210 kts 291°
2026-05-07 14:11 38.09291 24.17594 3664 ft 202 kts 269°
2026-05-07 14:11 38.09294 24.15816 3314 ft 201 kts 266°
2026-05-07 14:12 38.09253 24.14038 3020 ft 198 kts 265°
2026-05-07 14:12 38.09211 24.12334 2996 ft 196 kts 263°
2026-05-07 14:12 38.08873 24.10676 3004 ft 193 kts 242°
2026-05-07 14:12 38.08072 24.09334 3000 ft 192 kts 220°
2026-05-07 14:13 38.07009 24.08306 3006 ft 191 kts 217°
2026-05-07 14:13 38.05975 24.07317 2911 ft 183 kts 217°
2026-05-07 14:13 38.04973 24.06359 2735 ft 178 kts 216°
2026-05-07 14:13 38.04007 24.05436 2517 ft 174 kts 216°
2026-05-07 14:14 38.03080 24.04549 2313 ft 163 kts 216°
2026-05-07 14:14 38.02200 24.03709 2077 ft 155 kts 216°
2026-05-07 14:14 38.01359 24.02901 1847 ft 149 kts 216°
2026-05-07 14:14 38.00535 24.02111 1663 ft 150 kts 215°
2026-05-07 14:15 37.99712 24.01312 1463 ft 147 kts 214°
2026-05-07 14:15 37.98878 24.00538 1269 ft 149 kts 213°
2026-05-07 14:15 37.98060 23.99760 1050 ft 147 kts 216°
2026-05-07 14:15 37.97258 23.98985 856 ft 142 kts 216°
2026-05-07 14:16 37.96458 23.98241 656 ft 143 kts 216°
2026-05-07 14:16 37.95665 23.97490 490 ft 144 kts 216°
2026-05-07 14:16 37.94918 23.96770 328 ft 142 kts 215°
2026-05-07 14:16 37.94264 23.96152 286 ft 62 kts 217°
2026-05-07 14:17 37.93982 23.95880 281 ft 42 kts 220°
2026-05-07 14:17 37.93839 23.95651 282 ft 22 kts 244°
2026-05-07 14:17 37.93818 23.95593 285 ft 0 kts 244°
2026-05-07 14:18 37.93801 23.95541 294 ft 11 kts 249°
2026-05-07 14:18 37.93815 23.95473 297 ft 6 kts 308°
2026-05-07 14:18 37.93834 23.95445 298 ft 3 kts 309°
2026-05-07 14:19 37.93862 23.95399 300 ft 12 kts 307°
2026-05-07 14:19 37.93922 23.95300 304 ft 15 kts 307°
2026-05-07 14:19 37.93985 23.95190 302 ft 16 kts 305°
2026-05-07 14:19 37.94038 23.95174 301 ft 8 kts 34°
2026-05-07 14:20 37.94074 23.95208 303 ft 0 kts 38°
2026-05-07 14:20 37.94076 23.95210 303 ft 0 kts 38°